Waynesville, MO

8:46 AM CST on February 12, 2016 (GMT -0600)
Waynesville Regional At Forney Field

Weather History for KTBN - April, 2012

Change the Weather History Date:

Thursday, April 26, 2012

  Actual Average Record
Temperature  
Mean Temperature 71 °F -  
Max Temperature 81 °F 68 °F 82 °F (2001)
Min Temperature 62 °F 50 °F 38 °F (2008)
Cooling Degree Days 6    
Growing Degree Days 21 (Base 50)    
Moisture  
Dew Point 57 °F    
Average Humidity 62    
Maximum Humidity 89    
Minimum Humidity 37    
Precipitation  
Precipitation 0.00 in - - ()
Sea Level Pressure  
Sea Level Pressure 29.85 in    
Wind  
Wind Speed 6 mph (North)    
Max Wind Speed 10 mph    
Max Gust Speed -    
Visibility 9 miles    
Events      
Averages and records for this station are not official NWS values.
T = Trace of Precipitation, MM = Missing Value Source: NWS Daily Summary

Daily Weather History Graph

Daily Weather History Graph

Search for Another Location

Airport or City:

Trip Planner

Search our weather history database for the weather conditions in past years. The results will help you decide how hot, cold, wet, or windy it might be!

Date:

Astronomy

Apr. 26, 2012 Rise Set
Actual Time 6:18 AM CDT 7:54 PM CDT
Civil Twilight 5:50 AM CDT 8:22 PM CDT
Nautical Twilight 5:16 AM CDT 8:56 PM CDT
Astronomical Twilight 4:41 AM CDT 9:32 PM CDT
Moon 10:00 AM CDT (4/26) No Moon Set
Length of Visible Light 14h 32m
Length of Day
13h 36m
Waxing Crescent, 24% of the Moon is Illuminated
Apr 26
Waxing Crescent
Apr 29
First Quarter
May 5
Full
May 12
Last Quarter
May 20
New

Hourly Weather History & Observations

Time (CDT) Temp. Heat Index Dew Point Humidity Pressure Visibility Wind Dir Wind Speed Gust Speed Precip Events Conditions
12:55 AM 70.9 °F - 66.2 °F 85% 29.66 in 9.0 mi WSW 6.9 mph - N/A   Clear
1:55 AM 70.3 °F - 66.4 °F 87% 29.67 in 9.0 mi Variable 4.6 mph - N/A   Clear
2:55 AM 68.9 °F - 65.5 °F 89% 29.68 in 9.0 mi Variable 5.8 mph - N/A   Clear
3:55 AM 67.1 °F - 62.8 °F 86% 29.70 in 8.0 mi WNW 4.6 mph - N/A   Clear
4:55 AM 65.7 °F - 59.4 °F 80% 29.73 in 8.0 mi WNW 5.8 mph - N/A   Clear
5:55 AM 63.7 °F - 56.7 °F 78% 29.76 in 10.0 mi WNW 5.8 mph - N/A   Clear
6:55 AM 62.1 °F - 54.5 °F 76% 29.80 in 10.0 mi WNW 5.8 mph - N/A   Clear
7:55 AM 64.9 °F - 55.6 °F 72% 29.83 in 10.0 mi NW 5.8 mph - N/A   Clear
8:55 AM 67.8 °F - 56.5 °F 67% 29.85 in 10.0 mi NNW 8.1 mph - N/A   Clear
9:55 AM 71.4 °F - 58.1 °F 63% 29.87 in 10.0 mi North 8.1 mph - N/A   Clear
10:55 AM 74.7 °F - 56.3 °F 53% 29.88 in 10.0 mi North 6.9 mph - N/A   Clear
11:55 AM 78.4 °F - 54.5 °F 43% 29.88 in 10.0 mi North 8.1 mph - N/A   Clear
12:55 PM 80.1 °F 80.0 °F 54.0 °F 40% 29.89 in 10.0 mi North 10.4 mph - N/A   Scattered Clouds
1:55 PM 80.8 °F - 52.5 °F 37% 29.89 in 10.0 mi ENE 5.8 mph - N/A   Scattered Clouds
2:53 PM 80.6 °F 80.3 °F 53.6 °F 39% 29.89 in 2.5 mi North 5.8 mph - N/A   Haze
2:55 PM 80.8 °F 80.4 °F 53.8 °F 39% 29.89 in 2.5 mi North 8.1 mph - N/A   Haze
2:57 PM 80.6 °F 80.3 °F 53.6 °F 39% 29.89 in 3.0 mi North 8.1 mph - N/A   Haze
3:55 PM 79.9 °F - 53.1 °F 39% 29.89 in 10.0 mi NNW 9.2 mph - N/A   Scattered Clouds
4:55 PM 76.6 °F - 56.7 °F 50% 29.89 in 10.0 mi North 5.8 mph - N/A   Partly Cloudy
5:55 PM 74.8 °F - 57.6 °F 55% 29.90 in 10.0 mi North 5.8 mph - N/A   Mostly Cloudy
6:55 PM 72.9 °F - 57.7 °F 59% 29.91 in 10.0 mi NNE 3.5 mph - N/A   Overcast
7:55 PM 70.7 °F - 57.2 °F 62% 29.92 in 10.0 mi NNE 4.6 mph - N/A   Overcast
8:55 PM 68.5 °F - 57.0 °F 67% 29.92 in 10.0 mi NE 3.5 mph - N/A   Clear
9:55 PM 66.7 °F - 57.4 °F 72% 29.94 in 10.0 mi Calm Calm - N/A   Mostly Cloudy
10:55 PM 65.1 °F - 54.9 °F 69% 29.95 in 10.0 mi NE 3.5 mph - N/A   Partly Cloudy
11:55 PM 64.4 °F - 54.9 °F 71% 29.95 in 10.0 mi ENE 8.1 mph - N/A   Mostly Cloudy